Regional Weather Roundup
Issued by NWS

Home | Current Version | Previous Version | Graphics & Text | Print | Product List | Glossary Off
Versions: 1 2 3 4 5 6 7 8 9 10 11 12 13 14 15 16 17 18 19 20 21 22 23 24 25 26 27 28 29 30 31 32 33 34 35 36 37 38 39 40 41 42 43 44 45 46 47 48 49 50

000
ASUS43 KLSX 140957
RWRMO

WEATHER SUMMARY FOR MISSOURI
NATIONAL WEATHER SERVICE SPRINGFIELD MO
400 AM CST SUN FEB 14 2016

NOTE: "FAIR" INDICATES FEW OR NO CLOUDS BELOW 12,000 FEET WITH NO
       SIGNIFICANT WEATHER AND/OR OBSTRUCTIONS TO VISIBILITY.
       CURRENT SKY AND/OR WEATHER CONDITIONS ARE NOT AVAILABLE FOR
       CHILLICOTHE AND FARMINGTON.

MOZ001>031-035>038-043-044-053-054-141100-
...NORTHERN AND WESTERN MISSOURI...

CITY           SKY/WX    TMP DP  RH WIND       PRES   REMARKS
KANSAS CTY INT CLOUDY    23   7  50 E13       30.03F WCI  11
LEE`S SUMMIT   CLOUDY    25   6  44 E14       30.05F WCI  13
ST JOSEPH      CLOUDY    24   5  44 SE12      30.07F WCI  13
CHILLICOTHE      N/A     23   6  48 SE12G22   30.12F WCI  12

$$
MOZ066>068-077>081-088>096-101>105-141100-
...SOUTHWEST MISSOURI...

CITY           SKY/WX    TMP DP  RH WIND       PRES   REMARKS
SPRINGFIELD    MIX PCPN  27   9  46 SE13      30.07R WCI  16
JOPLIN         CLOUDY    35  12  38 SE12G20   30.01F WCI  27

$$
MOZ032>034-039>042-045>050-055>058-069>072-141100-
...CENTRAL MISSOURI...

CITY           SKY/WX    TMP DP  RH WIND       PRES   REMARKS
COLUMBIA       NOT AVBL
JEFFERSON CITY CLOUDY    25   6  44 SE16      30.19F WCI  12
ROLLA          CLOUDY    23   6  48 SE15      30.15F WCI  10
SEDALIA        CLOUDY    27   2  34 SE15      30.12F WCI  15

$$
MOZ051-052-059>065-141100-
...EAST CENTRAL MISSOURI...

CITY           SKY/WX    TMP DP  RH WIND       PRES   REMARKS
ST LOUIS INTL  CLOUDY    24   7  48 E13       30.29F WCI  12

$$
MOZ072>076-082>087-097>100-106>115-141100-
...SOUTH CENTRAL AND SOUTHEAST MISSOURI...

CITY           SKY/WX    TMP DP  RH WIND       PRES   REMARKS
CAPE GIRARDEAU MIX PCPN  24  13  62 E12       30.34F WCI  13
POPLAR BLUFF   MIX PCPN  27  13  55 E9        30.30F WCI  18
WEST PLAINS    FRZ RAIN  23  14  68 SE10      30.18F WCI  12

$$


USA.gov is the U.S. government's official web portal to all federal, state and local government web resources and services.